Location: Wellington
(41.3000°S, 174.7830°E)
Time: 02:27:49
(UTC+13:00)

ISS - Pass Details

Date: 01 February 2019
Orbit: 403 x 411 km, 51.6° (Epoch: 20 February)

Event Time Altitude Azimuth Distance (km) Brightness Sun altitude
Exits shadow 05:20:13 17° 284° (WNW) 1,133 -2.1 -11.5°
Maximum altitude 05:22:34 51° 211° (SSW) 535 -3.2 -11.1°
Drops below altitude 10° 05:25:52 10° 134° (SE) 1,499 0.6 -10.6°
Sets 05:28:00 0° 128° (SE) 2,364 2.4 -10.3°
